2020-034A

Last updated on Thu Jun 25 2020 00:02:02 GMT+0000 (Coordinated Universal Time)

1 45624U 20034A 20176.59648451 .00000627 00000-0 28463-4 0 9990 2 45624 97.2884 321.4447 0013308 186.6707 303.9974 15.24268339 3681

Satellite not in orbit

2020-034A